Location: Arlington
(40.6323°N, 74.1651°W)
Time: 01:55:02
(UTC+00:00)

SMAP - Pass Details

Date: 22 November 2019
Orbit: 682 x 683 km, 98.1° (Epoch: 09 December)

Event Time Altitude Azimuth Distance (km) Brightness Sun altitude
Rises 22:29:54 0° 170° (S) 3,029 6.5 -10.7°
Reaches altitude 10° 22:32:08 10° 172° (S) 2,118 5.7 -11.1°
Maximum altitude 22:36:46 74° 258° (WSW) 713 3.3 -11.9°
Drops below altitude 10° 22:41:26 10° 344° (NNW) 2,134 5.6 -12.8°
Sets 22:43:41 0° 346° (NNW) 3,053 6.4 -13.2°
